Content
SEND FEEDBACK

Daily
Averages
Monthly
Summary
Canada

QUEBEC CITY, QUEBEC


Home > North America > Canada > Quebec
Elevation: 239 feet     Latitude: 46 48N     Longitude: 071 23W

WEATHER
 
SELECT A DAY
Number of Records: 192,044;   Date Range: 6/30/96 - 7/27/14
 
SHARE

PRINT THIS DATA

[ ← Previous Day ]
WEATHER ALMANAC - APRIL 3, 2013
[ Next Day → ]
[ °C ]   °F
Weather ElementAverageHighLow
Temperature23.6 °F30.2 °F (4:00 pm)17.6 °F (1:00 am)
Dewpoint12 °F18 °F (8:00 pm) (7:00 pm)
Humidity61.2 %80 % (6:00 am)42 % (5:00 pm)
Barometer27.21 in30.01 in (11:00 pm) (7:00 pm)
Wind Speed18.4 mph27.6 mph (10:00 am)
Wind Gust35.7 mph (10:00 am)
Weather ElementAverage
Visibility14.9 mi
Wind DirectionWSW (256.8 °)

Weather ElementTotal
Precipitation---
Heating Degree Days41.1 (Base 65)
Averaged from 34 records on April 3, 2013
WEATHER CONDITIONS BREAKOUT
WIND DIRECTION BREAKOUT
WEATHER BY HOUR - APRIL 3, 2013
[ °C ]   °F
Local TimeTemperatureDewpointHumidityBarometerVisibilityWind DirectionWind SpeedGust SpeedPrecipitationEventsConditions
1:00 AM17.6 °F10.4 °F73 %29.75 in8.0 miWest (260°)20.7 mphSnowLight Snow Showers
2:00 AM18.0 °F8.0 °F50 %29.76 inWest (280°)15.0 mph
2:00 AM17.6 °F6.8 °F63 %29.76 in15.0 miWest (270°)17.3 mph28.8 mphSnowLight Snow Showers
3:00 AM17.6 °F8.6 °F68 %29.75 in15.0 miWSW (250°)15.0 mphOvercast
4:00 AM17.6 °F10.4 °F73 %29.75 in15.0 miWSW (250°)15.0 mphSnowLight Snow Showers
5:00 AM18.0 °F13.0 °F73 %29.74 inWSW (240°)11.5 mph
5:00 AM17.6 °F12.2 °F79 %29.74 in15.0 miWSW (250°)13.8 mph20.7 mphSnowLight Snow Showers
6:00 AM19.4 °F14.0 °F80 %29.74 in10.0 miWSW (250°)18.4 mph25.3 mphSnowLight Snow Showers
6:47 AM19.4 °F0.0 °F4.0 miWSW (250°)17.3 mphOvercast
7:00 AM19.4 °F14.0 °F80 %29.77 in6.0 miWest (260°)19.6 mphSnowLight Snow Showers
7:37 AM19.4 °F0.0 °F2.5 miWSW (250°)21.9 mphSnowLight Snow Showers
8:00 AM20.0 °F13.0 °F66 %29.78 inWSW (250°)18.4 mph
8:00 AM19.4 °F12.2 °F74 %29.78 in10.0 miWSW (250°)23.0 mph28.8 mphOvercast
9:00 AM19.4 °F14.0 °F80 %29.79 in2.0 miWest (260°)20.7 mph27.6 mphSnowLight Snow Showers
9:35 AM21.2 °F0.0 °F10.0 miWest (270°)23.0 mph29.9 mphOvercast
10:00 AM21.2 °F10.4 °F63 %29.80 in10.0 miWest (270°)27.6 mph35.7 mphMostly Cloudy
11:00 AM23.0 °F10.4 °F59 %29.81 in15.0 miWest (270°)21.9 mph31.1 mphMostly Cloudy
11:00 AM23.0 °F11.0 °F48 %29.81 inWest (260°)20.7 mph
12:00 PM24.8 °F10.4 °F54 %29.82 in15.0 miWest (270°)20.7 mph33.4 mphMostly Cloudy
1:00 PM26.6 °F12.2 °F55 %29.82 in20.0 miWest (280°)20.7 mph31.1 mphOvercast
2:00 PM27.0 °F14.0 °F45 %29.83 inWSW (250°)19.6 mph
2:00 PM26.6 °F14.0 °F59 %29.83 in20.0 miWest (260°)21.9 mph28.8 mphMostly Cloudy
3:00 PM28.4 °F14.0 °F55 %29.85 in30.0 miWest (270°)18.4 mph28.8 mphMostly Cloudy
4:00 PM30.2 °F14.0 °F51 %29.86 in25.0 miWest (270°)25.3 mph33.4 mphMostly Cloudy
5:00 PM30.2 °F14.0 °F51 %29.88 in20.0 miWest (260°)23.0 mph31.1 mphMostly Cloudy
5:00 PM30.0 °F16.0 °F42 %29.88 inWest (260°)20.7 mph
6:00 PM30.2 °F14.0 °F51 %29.89 in30.0 miWest (260°)19.6 mph28.8 mphPartly Cloudy
7:00 PM30.2 °F15.8 °F55 %29.92 in30.0 miWSW (250°)16.1 mph27.6 mphScattered Clouds
8:00 PM29.0 °F18.0 °F52 %29.95 inWSW (250°)13.8 mph
8:00 PM28.4 °F15.8 °F59 %29.96 in15.0 miWest (260°)17.3 mph24.2 mphScattered Clouds
9:00 PM28.4 °F17.6 °F64 %29.99 in15.0 miWSW (250°)16.1 mph23.0 mphPartly Cloudy
10:00 PM28.4 °F17.6 °F64 %30.00 in15.0 miWSW (250°)11.5 mph19.6 mphPartly Cloudy
11:00 PM28.0 °F17.0 °F51 %30.01 inSW (220°)5.8 mph
11:00 PM28.4 °F15.8 °F59 %30.01 in15.0 miSW (230°)12.7 mphClear
Hourly data recorded from CYQB, located miles away from Quebec City, Quebec







STORIES FROM OUR PARTNERS